Terminal Aerodrome Forecast
Issued by NWS Dallas/Fort Worth, TX

Home | Current Version | Previous Version | Text Only | Print | Product List | Glossary On
Versions: 1 2 3 4 5 6 7 8 9 10 11 12 13 14 15 16 17 18 19 20 21 22 23 24 25 26 27 28 29 30 31 32 33 34 35 36 37 38
000
FTUS44 KFWD 280112 AAA
TAFACT
TAF AMD
KACT 280112Z 2801/2824 03012KT 3SM -FZRA BR BKN008 OVC015
     FM280400 04010KT 3SM -FZDZ BR OVC008
      TEMPO 2811/2815 1SM -FZDZ BR OVC004
     FM281600 07008KT 5SM -DZ BR BKN007 OVC012
     FM282000 05006KT P6SM -RA OVC012=

USA.gov is the U.S. government's official web portal to all federal, state and local government web resources and services.